| time (UTC) | temp F | wind direction | speed knots | gust knots | rain 1hr in | rain 24hr in | rain mn in | humidity % | barometer mb |
| 20260904213533 | 99 | 359 | 0.9 | 1.7 | 0.00 | 0.03 | 0.00 | 31 | 1007.7 |
| 20260904212602 | 99 | 351 | 0.9 | 0.9 | 0.00 | 0.03 | 0.00 | 33 | 1007.8 |
| 20260904211520 | 99 | 279 | 0.9 | 0.9 | 0.00 | 0.03 | 0.00 | 34 | 1008.0 |
| 20260904210527 | 99 | 275 | 1.7 | 1.7 | 0.00 | 0.03 | 0.00 | 35 | 1008.1 |
| 20260904205532 | 99 | 250 | 0.9 | 0.9 | 0.00 | 0.03 | 0.00 | 36 | 1008.1 |
| 20260904204550 | 98 | 261 | 0.9 | 1.7 | 0.00 | 0.03 | 0.00 | 35 | 1008.2 |
| 20260904203531 | 99 | 233 | 0.9 | 0.9 | 0.00 | 0.03 | 0.00 | 36 | 1008.4 |
| 20260904202521 | 98 | 264 | 0.9 | 0.9 | 0.00 | 0.03 | 0.00 | 36 | 1008.5 |
| 20260904201523 | 98 | 239 | 0.9 | 0.9 | 0.00 | 0.03 | 0.00 | 37 | 1008.7 |
| 20260904200526 | 97 | 354 | 0.9 | 1.7 | 0.00 | 0.03 | 0.00 | 36 | 1008.8 |
| 20260904195524 | 98 | 326 | 0.9 | 1.7 | 0.00 | 0.03 | 0.00 | 36 | 1008.9 |
| 20260904194521 | 98 | 29 | 0.9 | 1.7 | 0.00 | 0.03 | 0.00 | 36 | 1009.0 |
| 20260904193519 | 97 | 349 | 0.9 | 0.9 | 0.00 | 0.03 | 0.00 | 36 | 1009.2 |
| 20260904192520 | 97 | 284 | 0.9 | 0.9 | 0.00 | 0.03 | 0.00 | 37 | 1009.4 |
| 20260904191526 | 97 | 345 | 0.9 | 0.9 | 0.00 | 0.03 | 0.00 | 39 | 1009.6 |
| 20260904190524 | 96 | 233 | 0.0 | 0.9 | 0.00 | 0.03 | 0.00 | 40 | 1009.7 |
| 20260904185538 | 95 | 320 | 0.9 | 0.9 | 0.00 | 0.03 | 0.00 | 41 | 1009.7 |
| 20260904184544 | 95 | 252 | 0.9 | 0.9 | 0.00 | 0.03 | 0.00 | 42 | 1009.8 |
| 20260904183529 | 94 | 205 | 0.9 | 0.9 | 0.00 | 0.03 | 0.00 | 44 | 1009.9 |
| 20260904182523 | 94 | 185 | 0.9 | 0.9 | 0.00 | 0.03 | 0.00 | 46 | 1010.1 |
| 20260904181521 | 94 | 266 | 0.9 | 0.9 | 0.00 | 0.03 | 0.00 | 46 | 1010.2 |
| 20260904180544 | 93 | 156 | 0.9 | 0.9 | 0.00 | 0.03 | 0.00 | 48 | 1010.2 |
| 20260904175542 | 93 | 192 | 0.9 | 0.9 | 0.00 | 0.03 | 0.00 | 48 | 1010.4 |
| 20260904174528 | 92 | 184 | 0.9 | 0.9 | 0.00 | 0.03 | 0.00 | 49 | 1010.6 |
| 20260904173521 | 92 | 351 | 0.9 | 0.9 | 0.00 | 0.03 | 0.00 | 50 | 1010.7 |
| 20260904172529 | 91 | 211 | 1.7 | 1.7 | 0.00 | 0.03 | 0.00 | 51 | 1010.8 |
| 20260904171535 | 91 | 133 | 1.7 | 1.7 | 0.00 | 0.03 | 0.00 | 50 | 1010.8 |
| 20260904170532 | 90 | 222 | 1.7 | 1.7 | 0.00 | 0.03 | 0.00 | 51 | 1010.9 |
| 20260904165522 | 90 | 190 | 1.7 | 1.7 | 0.00 | 0.03 | 0.00 | 52 | 1010.8 |
| 20260904164528 | 89 | 178 | 1.7 | 1.7 | 0.00 | 0.03 | 0.00 | 52 | 1010.8 |
| 20260904163544 | 89 | 167 | 1.7 | 1.7 | 0.00 | 0.03 | 0.00 | 52 | 1010.7 |
| 20260904162525 | 88 | 223 | 1.7 | 1.7 | 0.00 | 0.03 | 0.00 | 53 | 1010.6 |
| 20260904161522 | 88 | 195 | 1.7 | 1.7 | 0.00 | 0.03 | 0.00 | 53 | 1010.6 |
| 20260904160541 | 87 | 115 | 1.7 | 1.7 | 0.00 | 0.03 | 0.00 | 53 | 1010.6 |
| 20260904155534 | 87 | 236 | 1.7 | 1.7 | 0.00 | 0.03 | 0.00 | 53 | 1010.6 |
| 20260904154520 | 87 | 149 | 1.7 | 1.7 | 0.00 | 0.03 | 0.00 | 54 | 1010.5 |
| 20260904153526 | 86 | 177 | 1.7 | 1.7 | 0.00 | 0.03 | 0.00 | 54 | 1010.5 |
| 20260904152532 | 86 | 157 | 0.9 | 1.7 | 0.00 | 0.03 | 0.00 | 55 | 1010.5 |
| 20260904151539 | 85 | 91 | 1.7 | 1.7 | 0.00 | 0.03 | 0.00 | 55 | 1010.4 |
| 20260904150531 | 85 | 191 | 1.7 | 1.7 | 0.00 | 0.03 | 0.00 | 55 | 1010.4 |
| 20260904145547 | 85 | 169 | 1.7 | 1.7 | 0.00 | 0.03 | 0.00 | 55 | 1010.4 |
| 20260904144524 | 84 | 183 | 1.7 | 1.7 | 0.00 | 0.03 | 0.00 | 55 | 1010.4 |
| 20260904143529 | 84 | 191 | 0.9 | 1.7 | 0.00 | 0.03 | 0.00 | 56 | |
| 20260904142531 | 83 | 149 | 0.9 | 0.9 | 0.00 | 0.03 | 0.00 | 56 | |
| 20260904141527 | 82 | 210 | 0.9 | 0.9 | 0.00 | 0.03 | 0.00 | 56 | 1010.2 |
| 20260904140539 | 82 | 199 | 0.0 | 0.9 | 0.00 | 0.03 | 0.00 | 56 | 1010.2 |
| 20260904135521 | 81 | 154 | 0.0 | 0.9 | 0.00 | 0.03 | 0.00 | 56 | 1010.0 |
| 20260904134526 | 81 | 139 | 0.9 | 0.9 | 0.00 | 0.03 | 0.00 | 56 | 1009.9 |
| 20260904133533 | 81 | 193 | 0.0 | 0.9 | 0.00 | 0.03 | 0.00 | 56 | 1009.8 |
| 20260904132524 | 81 | 189 | 0.0 | 0.9 | 0.00 | 0.03 | 0.00 | 56 | 1009.7 |
| 20260904131521 | 81 | 209 | 0.0 | 0.9 | 0.00 | 0.03 | 0.00 | 56 | 1009.5 |
| 20260904130548 | 81 | 208 | 0.0 | 0.0 | 0.00 | 0.03 | 0.00 | 56 | 1009.3 |
| 20260904125526 | 81 | 166 | 0.0 | 0.9 | 0.00 | 0.03 | 0.00 | 56 | 1009.1 |
| 20260904124523 | 82 | 208 | 0.9 | 0.9 | 0.00 | 0.03 | 0.00 | 57 | 1009.0 |
| 20260904123536 | 82 | 191 | 0.9 | 0.9 | 0.00 | 0.03 | 0.00 | 56 | 1008.8 |
| 20260904122540 | 82 | 187 | 0.9 | 0.9 | 0.00 | 0.03 | 0.00 | 56 | 1008.7 |
| 20260904121547 | 82 | 183 | 0.9 | 0.9 | 0.00 | 0.03 | 0.00 | 56 | 1008.7 |
| 20260904120601 | 82 | 220 | 0.9 | 0.9 | 0.00 | 0.03 | 0.00 | 56 | 1008.7 |
| 20260904115526 | 82 | 105 | 0.9 | 0.9 | 0.00 | 0.03 | 0.00 | 56 | 1008.7 |
| 20260904114532 | 83 | 191 | 0.9 | 0.9 | 0.00 | 0.03 | 0.00 | 56 | 1008.6 |
| 20260904113534 | 83 | 220 | 0.9 | 0.9 | 0.00 | 0.03 | 0.00 | 56 | 1008.6 |
| 20260904112534 | 82 | 181 | 0.9 | 0.9 | 0.00 | 0.03 | 0.00 | 56 | 1008.5 |
| 20260904111525 | 82 | 184 | 1.7 | 1.7 | 0.00 | 0.03 | 0.00 | 56 | 1008.6 |
| 20260904110524 | 83 | 204 | 0.9 | 1.7 | 0.00 | 0.03 | 0.00 | 56 | 1008.6 |
| 20260904105550 | 83 | 182 | 1.7 | 1.7 | 0.00 | 0.03 | 0.00 | 56 | 1008.5 |
| 20260904104530 | 83 | 176 | 0.9 | 0.9 | 0.00 | 0.03 | 0.00 | 56 | 1008.5 |
| 20260904103543 | 83 | 181 | 0.9 | 0.9 | 0.00 | 0.03 | 0.00 | 56 | 1008.6 |
| 20260904102521 | 83 | 128 | 0.9 | 0.9 | 0.00 | 0.03 | 0.00 | 56 | 1008.6 |
| 20260904101525 | 83 | 178 | 0.9 | 0.9 | 0.00 | 0.03 | 0.00 | 56 | 1008.5 |
| 20260904100526 | 83 | 192 | 0.9 | 1.7 | 0.00 | 0.03 | 0.00 | 56 | 1008.4 |
| 20260904095548 | 83 | 177 | 1.7 | 1.7 | 0.00 | 0.03 | 0.00 | 56 | 1008.4 |
| 20260904094531 | 83 | 174 | 1.7 | 1.7 | 0.00 | 0.03 | 0.00 | 56 | 1008.2 |
| 20260904093529 | 83 | 191 | 1.7 | 1.7 | 0.00 | 0.03 | 0.00 | 56 | 1008.3 |
| 20260904092547 | 83 | 140 | 1.7 | 1.7 | 0.00 | 0.03 | 0.00 | 56 | 1008.2 |
| 20260904091525 | 83 | 143 | 1.7 | 1.7 | 0.00 | 0.03 | 0.00 | 56 | 1008.2 |
| 20260904090524 | 83 | 157 | 0.9 | 1.7 | 0.00 | 0.03 | 0.00 | 56 | 1008.3 |
| 20260904085520 | 83 | 198 | 0.9 | 0.9 | 0.00 | 0.03 | 0.00 | 56 | 1008.3 |
| 20260904084603 | 83 | 193 | 0.9 | 0.9 | 0.00 | 0.03 | 0.00 | 56 | 1008.3 |
| 20260904083530 | 83 | 162 | 0.9 | 0.9 | 0.00 | 0.03 | 0.00 | 56 | 1008.3 |
| 20260904082521 | 83 | 164 | 0.9 | 0.9 | 0.00 | 0.03 | 0.00 | 56 | 1008.4 |
| 20260904081541 | 83 | 64 | 0.9 | 0.9 | 0.00 | 0.03 | 0.00 | 56 | 1008.5 |
| 20260904080535 | 84 | 146 | 0.9 | 0.9 | 0.00 | 0.03 | 0.00 | 55 | 1008.5 |
| 20260904075539 | 84 | 158 | 0.9 | 0.9 | 0.00 | 0.03 | 0.00 | 55 | 1008.5 |
| 20260904074526 | 84 | 155 | 0.9 | 0.9 | 0.00 | 0.03 | 0.00 | 55 | 1008.5 |
| 20260904073541 | 84 | 155 | 0.9 | 0.9 | 0.00 | 0.03 | 0.00 | 55 | 1008.5 |
| 20260904072525 | 84 | 161 | 0.9 | 0.9 | 0.00 | 0.03 | 0.00 | 55 | 1008.6 |
| 20260904071533 | 84 | 236 | 0.9 | 0.9 | 0.00 | 0.03 | 0.00 | 55 | 1008.6 |
| 20260904070536 | 84 | 177 | 0.9 | 0.9 | 0.00 | 0.03 | 0.00 | 55 | 1008.5 |
| 20260904065544 | 85 | 224 | 0.9 | 1.7 | 0.00 | 0.03 | 0.03 | 54 | 1008.5 |
| 20260904064558 | 85 | 186 | 0.9 | 1.7 | 0.00 | 0.03 | 0.03 | 54 | 1008.5 |
| 20260904063521 | 85 | 171 | 0.9 | 1.7 | 0.00 | 0.03 | 0.03 | 54 | 1008.6 |
| 20260904062529 | 85 | 153 | 0.9 | 0.9 | 0.00 | 0.03 | 0.03 | 54 | 1008.5 |
| 20260904061554 | 85 | 146 | 0.9 | 0.9 | 0.00 | 0.03 | 0.03 | 53 | 1008.5 |
| 20260904060521 | 85 | 197 | 1.7 | 1.7 | 0.00 | 0.03 | 0.03 | 53 | 1008.5 |
| 20260904055527 | 85 | 193 | 1.7 | 1.7 | 0.00 | 0.03 | 0.03 | 53 | 1008.4 |
| 20260904054525 | 85 | 213 | 0.9 | 1.7 | 0.00 | 0.03 | 0.03 | 53 | 1008.3 |
| 20260904053526 | 85 | 196 | 0.9 | 0.9 | 0.00 | 0.03 | 0.03 | 53 | 1008.2 |
| 20260904052521 | 86 | 187 | 0.9 | 1.7 | 0.00 | 0.03 | 0.03 | 53 | 1008.2 |
| 20260904051520 | 86 | 144 | 0.9 | 0.9 | 0.00 | 0.03 | 0.03 | 53 | 1008.3 |
| 20260904050552 | 86 | 234 | 0.9 | 0.9 | 0.00 | 0.03 | 0.03 | 53 | 1008.3 |
| 20260904045549 | 86 | 163 | 0.9 | 0.9 | 0.00 | 0.03 | 0.03 | 53 | 1008.4 |
| 20260904044522 | 86 | 170 | 0.9 | 1.7 | 0.00 | 0.03 | 0.03 | 53 | 1008.4 |
| 20260904043528 | 86 | 192 | 0.9 | 0.9 | 0.00 | 0.03 | 0.03 | 53 | 1008.5 |
| 20260904042534 | 86 | 195 | 1.7 | 1.7 | 0.00 | 0.03 | 0.03 | 53 | 1008.6 |
| 20260904041528 | 86 | 196 | 0.9 | 0.9 | 0.00 | 0.03 | 0.03 | 53 | 1008.6 |
| 20260904040550 | 87 | 202 | 1.7 | 1.7 | 0.00 | 0.03 | 0.03 | 52 | 1008.5 |
| 20260904035548 | 86 | 161 | 1.7 | 1.7 | 0.00 | 0.03 | 0.03 | 52 | 1008.4 |
| 20260904034524 | 87 | 198 | 1.7 | 1.7 | 0.00 | 0.03 | 0.03 | 52 | 1008.2 |
| 20260904033550 | 87 | 232 | 1.7 | 1.7 | 0.00 | 0.03 | 0.03 | 52 | 1008.0 |
| 20260904032525 | 87 | 178 | 1.7 | 2.6 | 0.00 | 0.03 | 0.03 | 52 | 1007.8 |
| 20260904031543 | 87 | 201 | 1.7 | 1.7 | 0.00 | 0.03 | 0.03 | 52 | 1007.7 |
| 20260904030522 | 87 | 169 | 1.7 | 1.7 | 0.00 | 0.03 | 0.03 | 52 | 1007.5 |
| 20260904025543 | 88 | 164 | 0.9 | 1.7 | 0.00 | 0.03 | 0.03 | 51 | 1007.3 |
| 20260904024528 | 88 | 219 | 1.7 | 1.7 | 0.00 | 0.03 | 0.03 | 51 | |
| 20260904023544 | 88 | 348 | 0.9 | 1.7 | 0.00 | 0.03 | 0.03 | 51 | |
| 20260904022549 | 88 | 194 | 0.9 | 1.7 | 0.00 | 0.03 | 0.03 | 51 | |
| 20260904021527 | 88 | 155 | 0.9 | 0.9 | 0.00 | 0.03 | 0.03 | 50 | |
| 20260904020524 | 89 | 161 | 0.9 | 0.9 | 0.00 | 0.03 | 0.03 | 50 | 1007.0 |
| 20260904015546 | 89 | 242 | 0.9 | 0.9 | 0.00 | 0.03 | 0.03 | 49 | 1006.8 |
| 20260904014541 | 90 | 147 | 0.9 | 1.7 | 0.00 | 0.03 | 0.03 | 49 | 1006.6 |
| 20260904013537 | 90 | 159 | 0.9 | 0.9 | 0.00 | 0.03 | 0.03 | 50 | 1006.5 |
| 20260904012543 | 90 | 189 | 0.9 | 0.9 | 0.03 | 0.03 | 0.03 | 52 | 1006.5 |
| 20260904011524 | 90 | 192 | 0.9 | 0.9 | 0.03 | 0.03 | 0.03 | 52 | 1006.3 |
| 20260904010522 | 90 | 159 | 0.9 | 0.9 | 0.03 | 0.03 | 0.03 | 52 | 1006.3 |
| 20260904005528 | 90 | 205 | 0.0 | 0.9 | 0.03 | 0.03 | 0.03 | 52 | 1006.4 |
| 20260904004531 | 90 | 0.0 | 0.0 | 0.03 | 0.03 | 0.03 | 52 | 1006.4 | |
| 20260904003540 | 91 | 0.0 | 0.0 | 0.03 | 0.03 | 0.03 | 53 | 1006.5 | |
| 20260904002521 | 92 | 17 | 0.0 | 0.0 | 0.00 | 0.00 | 0.00 | 52 | 1006.3 |
| 20260904001559 | 92 | 180 | 0.9 | 0.9 | 0.00 | 0.00 | 0.00 | 49 | 1006.4 |
| 20260904000546 | 93 | 181 | 0.9 | 0.9 | 0.00 | 0.00 | 0.00 | 46 | 1006.3 |
| 20260903235526 | 94 | 154 | 1.7 | 1.7 | 0.00 | 0.00 | 0.00 | 44 | 1006.2 |
| 20260903234542 | 96 | 148 | 0.9 | 0.9 | 0.00 | 0.00 | 0.00 | 40 | 1006.4 |
| 20260903233538 | 96 | 237 | 0.9 | 0.9 | 0.00 | 0.00 | 0.00 | 40 | 1006.3 |
| 20260903232536 | 96 | 293 | 0.9 | 0.9 | 0.00 | 0.00 | 0.00 | 39 | 1006.4 |
| 20260903231523 | 97 | 226 | 0.9 | 1.7 | 0.00 | 0.00 | 0.00 | 40 | 1006.4 |
| 20260903230524 | 97 | 301 | 0.9 | 0.9 | 0.00 | 0.00 | 0.00 | 41 | 1006.3 |
| 20260903225550 | 97 | 280 | 0.9 | 0.9 | 0.00 | 0.00 | 0.00 | 40 | 1006.5 |
| 20260903224527 | 97 | 271 | 0.9 | 0.9 | 0.00 | 0.00 | 0.00 | 39 | 1006.5 |
| 20260903223547 | 97 | 244 | 0.9 | 0.9 | 0.00 | 0.00 | 0.00 | 40 | 1006.5 |
| 20260903222539 | 97 | 311 | 0.9 | 0.9 | 0.00 | 0.00 | 0.00 | 40 | 1006.6 |
| 20260903221522 | 97 | 305 | 0.9 | 0.9 | 0.00 | 0.00 | 0.00 | 40 | 1006.8 |
| 20260903220520 | 96 | 290 | 0.0 | 0.0 | 0.00 | 0.00 | 0.00 | 39 | 1006.9 |
| 20260903215557 | 97 | 127 | 0.9 | 0.9 | 0.00 | 0.00 | 0.00 | 39 | 1007.0 |
| 20260903214527 | 97 | 299 | 0.9 | 0.9 | 0.00 | 0.00 | 0.00 | 40 | 1007.1 |